Regional Weather Roundup
Issued by NWS

Home | Current Version | Previous Version | Text Only | Print | Product List | Glossary On
Versions: 1 2 3 4 5 6 7 8 9 10 11 12 13 14 15 16 17 18 19 20 21 22 23 24 25 26 27 28 29 30 31 32 33 34 35 36 37 38 39 40 41 42 43 44 45 46 47 48 49 50
000
ASUS46 KPQR 151610
RWROR

OREGON REGIONAL WEATHER ROUNDUP
NATIONAL WEATHER SERVICE PORTLAND OR
800 AM PST FRI NOV 15 2019

NOTE: "FAIR" INDICATES FEW OR NO CLOUDS BELOW 12,000 FEET WITH
NO SIGNIFICANT WEATHER AND/OR OBSTRUCTIONS TO VISIBILITY.

ORZ001>013-151700-
NORTHWEST OREGON


CITY           SKY/WX    TMP DP  RH WIND       PRES   REMARKS
ASTORIA        CLOUDY    54  54 100 SW12      30.05R FOG
TILLAMOOK      LGT RAIN  54  52  94 S10       30.10R
NEWPORT        FOG       52  52 100 S13       30.15R VSB 3/4
PORTLAND       LGT RAIN  47  45  93 SE12      30.11R
VANCOUVER WA   CLOUDY    48  45  89 SE7       30.10R FOG
SCAPPOOSE      CLOUDY    47  46  97 CALM      30.10R
HILLSBORO      CLOUDY    50  48  93 CALM      30.09R FOG
AURORA         CLOUDY    53  50  89 S5        30.11R
MCMINNVILLE    CLOUDY    49  48  97 N3        30.11R FOG
SALEM          LGT RAIN  51  49  92 S9        30.11R
CORVALLIS      CLOUDY    49  49 100 S10       30.14R
EUGENE         LGT RAIN  50  48  93 SE7       30.16R FOG
CRESWELL       CLOUDY    48  48 100 CALM      30.16R FOG
$$

ORZ021-028-151700-
SOUTHWEST OREGON


CITY           SKY/WX    TMP DP  RH WIND       PRES   REMARKS
NORTH BEND     LGT RAIN  55  54  94 S10       30.18R FOG
BROOKINGS      RAIN      55  54  94 VRB3      30.19R FOG
ROSEBURG       CLOUDY    48  45  89 CALM      30.17R
GRANTS PASS    CLOUDY    46  45  93 CALM      30.22R
MEDFORD        CLOUDY    47  40  76 CALM      30.19R
$$

ORZ014>016-041-151700-
COLUMBIA GORGE


CITY           SKY/WX    TMP DP  RH WIND       PRES   REMARKS
TROUTDALE      LGT RAIN  46  43  89 E10       30.12R FOG
HOOD RIVER     DRIZZLE   41  41 100 CALM      30.13R
THE DALLES     CLOUDY    44  40  85 CALM      30.13R
$$

ORZ029>031-041-044-049-050-061>064-502-503-505>511-151700-
EASTERN OREGON


CITY           SKY/WX    TMP DP  RH WIND       PRES   REMARKS
MADRAS         CLOUDY    37  37 100 CALM      30.12R FOG
REDMOND        CLOUDY    39  35  86 SE3       30.10R
BEND           CLOUDY    41  39  93 SW3       30.09R
PRINEVILLE     CLOUDY    39  37  93 CALM      30.11R
KLAMATH FALLS  MOCLDY    41  34  76 E5        30.20R
LAKEVIEW       CLOUDY    39  37  92 S5        30.23R
HERMISTON      CLOUDY    44  40  85 S3        30.11R
PENDLETON      CLOUDY    41  37  86 S5        30.09R
JOHN DAY       MOCLDY    41  36  82 E5        30.11R
MEACHAM        MOCLDY    32  29  88 CALM      30.07R
LA GRANDE      CLOUDY    39  34  82 CALM      30.10R
BAKER CITY     MOCLDY    36  31  82 CALM      30.11R
BURNS          PTSUNNY   34  26  72 CALM      30.16R
ROME             N/A     40  26  57 CALM      30.14
ONTARIO        PTSUNNY   38  31  76 CALM      30.17R
$$



USA.gov is the U.S. government's official web portal to all federal, state and local government web resources and services.